Location: Bramevaque
(42.9773°N, 0.5757°E)
Time: 07:56:37
(UTC+00:00)

Cosmos 2084 Rocket - Pass Details

Date: 15 May 2026
Orbit: 528 x 582 km, 62.8° (Epoch: 6 June)

Event Time Altitude Azimuth Distance (km) Brightness Sun altitude
Rises 19:41:45 0° 326° (NW) 2,757 8.3 -5.2°
Reaches altitude 10° 19:44:00 10° 331° (NNW) 1,866 7.2 -5.6°
Maximum altitude 19:48:09 55° 49° (NE) 690 3.7 -6.2°
Drops below altitude 10° 19:52:19 10° 128° (SE) 1,882 5.4 -6.8°
Enters shadow 19:52:37 - 129° (SE) 2,000 5.5 -6.9°
